Simultaneous Nadir Overpasses (SNOs) Predictions

Prediction of SNOs between GOES-14 and NOAA-20 Satellite Orbit:

Table of predicted SNOs for the next 14.0 days since TLE Epoch: 12/23/2023
Index Date Time (GOES-14) GOES-14 Lat,Lon NOAA-20 Lat,Lon Distance(km) Time Diff (sec)
1 12/23/2023 20:46:28 0.07,-108.60 -0.39,-110.59 227.07 80
2 12/24/2023 20:30:23 0.06,-108.60 0.65,-106.06 289.61 80
3 12/26/2023 08:49:30 -0.07,-108.62 0.54,-111.33 309.21 80
4 12/27/2023 08:33:25 -0.06,-108.61 -0.44,-106.79 207.37 80
5 12/28/2023 20:52:41 0.07,-108.59 -0.70,-112.10 399.18 80
6 12/29/2023 20:36:36 0.06,-108.59 0.29,-107.56 117.51 80
7 12/31/2023 08:55:43 -0.07,-108.61 0.89,-112.83 480.95 80
8 01/01/2024 08:39:39 -0.07,-108.61 -0.16,-108.30 35.97 80
9 01/03/2024 20:40:08 0.07,-108.60 -0.03,-109.06 53.18 80
10 01/04/2024 20:24:03 0.06,-108.60 0.96,-104.53 463.72 80
